This demonstration page uses our WeatherBlox Daily Observations layout. Learn more.

Left ArrowRight Arrow

39.51506, -84.39828

Hourly Observations for November 6, 2021

Temp ( °F °C ) Dew Point ( °F °C ) Humidity (%) Winds ( mph kmh ) Pressure ( in mb ) Visibility ( mi km ) Precip ( " mm )
12:15 am 00:15 Clear 29 -1.4 28 -2.3 94 94 NNE 3 6 30.37 1028 10 16 0.00 0.00
12:35 am 00:35 Clear 29 -1.9 27 -2.6 95 95 Calm 30.37 1028 10 16 0.00 0.00
12:55 am 00:55 Clear 28 -2.1 27 -2.8 95 95 Calm 30.37 1028 10 16 0.00 0.00
1:15 am 01:15 Clear 29 -1.9 28 -2.5 96 96 Calm 30.37 1028 10 16 0.00 0.00
1:35 am 01:35 Clear 29 -1.7 28 -2.3 96 96 Calm 30.37 1028 10 16 0.00 0.00
1:55 am 01:55 Clear 28 -2.1 27 -2.9 94 94 Calm 30.37 1028 10 16 0.00 0.00
2:15 am 02:15 Clear 29 -1.8 27 -2.6 94 94 Calm 30.37 1028 10 16 0.00 0.00
2:35 am 02:35 Clear 29 -1.8 27 -2.6 94 94 Calm 30.37 1028 10 16 0.00 0.00
2:55 am 02:55 Clear 28 -2.4 27 -2.9 96 96 Calm 30.36 1028 7 11 0.00 0.00
3:15 am 03:15 Clear 27 -2.8 26 -3.3 96 96 Calm 30.36 1028 10 16 0.00 0.00
3:35 am 03:35 Clear 26 -3.4 25 -4 96 96 Calm 30.36 1028 10 16 0.00 0.00
3:55 am 03:55 Clear with Mist and Fog 26 -3.2 26 -3.5 98 98 Calm 30.37 1029 7 11 0.00 0.00
4:15 am 04:15 Clear 27 -2.6 27 -2.9 98 98 Calm 30.37 1029 7 11 0.00 0.00
4:35 am 04:35 Clear 26 -3.2 26 -3.5 98 98 Calm 30.37 1029 10 16 0.00 0.00
4:55 am 04:55 Clear 27 -2.6 26 -3.2 96 96 Calm 30.37 1029 10 16 0.00 0.00
5:15 am 05:15 Clear 26 -3.2 25 -3.9 95 95 Calm 30.37 1029 10 16 0.00 0.00
5:35 am 05:35 Clear with Mist and Fog 26 -3.3 25 -3.7 97 97 Calm 30.37 1029 7 11 0.00 0.00
5:55 am 05:55 Clear 26 -3.6 25 -4 97 97 Calm 30.38 1029 7 11 0.00 0.00
6:15 am 06:15 Clear 26 -3.3 25 -3.7 97 97 N 5 7 30.37 1029 10 16 0.00 0.00
6:35 am 06:35 Clear 25 -3.7 24 -4.3 96 96 Calm 30.39 1029 7 11 0.00 0.00
6:55 am 06:55 Clear 25 -3.7 25 -4.1 97 97 N 3 6 30.39 1029 7 11 0.00 0.00
7:15 am 07:15 Clear 24 -4.5 23 -5 96 96 NNE 3 6 30.39 1029 7 11 0.00 0.00
7:35 am 07:35 Clear 26 -3.5 25 -3.9 97 97 NNE 5 7 30.39 1029 7 11 0.00 0.00
7:55 am 07:55 Clear 25 -4.1 24 -4.6 96 96 N 3 6 30.40 1029 10 16 0.00 0.00
8:15 am 08:15 Sunny with Mist and Fog 24 -4.5 23 -5 96 96 N 3 6 30.39 1029 7 11 0.00 0.00
8:35 am 08:35 Sunny with Mist and Fog 26 -3.5 25 -3.8 98 98 N 3 6 30.39 1029 7 11 0.00 0.00
8:55 am 08:55 Sunny 26 -3.1 25 -3.7 96 96 NNE 3 6 30.39 1029 7 11 0.00 0.00
9:15 am 09:15 Sunny 29 -1.5 28 -2.1 96 96 NNE 3 6 30.40 1029 7 11 0.00 0.00
9:35 am 09:35 Sunny 31 -0.3 29 -1.5 92 92 N 3 6 30.41 1030 10 16 0.00 0.00
9:55 am 09:55 Sunny 33 0.6 29 -1.7 85 85 NE 3 6 30.40 1030 10 16 0.00 0.00
10:15 am 10:15 Sunny 36 2.2 30 -0.9 80 80 E 3 6 30.38 1029 10 16 0.00 0.00
10:35 am 10:35 Sunny 38 3.3 31 -0.6 76 76 ENE 3 6 30.38 1029 10 16 0.00 0.00
10:55 am 10:55 Sunny 41 4.8 31 -0.8 67 67 NE 3 6 30.36 1028 10 16 0.00 0.00
11:15 am 11:15 Sunny 42 5.8 30 -1.1 62 62 Calm 30.36 1028 10 16 0.00 0.00
11:35 am 11:35 Sunny 44 6.9 31 -0.7 59 59 Calm 30.35 1028 10 16 0.00 0.00
11:55 am 11:55 Sunny 47 8.2 30 -1 53 53 SSW 3 6 30.34 1028 10 16 0.00 0.00
12:15 pm 12:15 Sunny 49 9.5 28 -2.3 44 44 W 6 9 30.33 1027 10 16 0.00 0.00
12:35 pm 12:35 Sunny 50 10.1 27 -2.6 41 41 WSW 3 6 30.33 1027 10 16 0.00 0.00
12:55 pm 12:55 Sunny 52 11 27 -2.7 39 39 S 6 9 30.32 1027 10 16 0.00 0.00
1:15 pm 13:15 Sunny 52 11.3 26 -3.3 36 36 SSW 3 6 30.31 1026 10 16 0.00 0.00
1:35 pm 13:35 Sunny 53 11.8 26 -3.5 34 34 SSE 5 7 30.29 1026 10 16 0.00 0.00
1:55 pm 13:55 Sunny 53 11.8 25 -4.1 33 33 S 3 6 30.28 1026 10 16 0.00 0.00
2:15 pm 14:15 Sunny 54 12.2 25 -3.8 33 33 W 3 6 30.28 1026 10 16 0.00 0.00
2:35 pm 14:35 Sunny 55 12.5 25 -3.9 32 32 Calm 30.27 1025 10 16 0.00 0.00
2:55 pm 14:55 Sunny 56 13.1 26 -3.6 31 31 SE 3 6 30.26 1025 10 16 0.00 0.00
3:15 pm 15:15 Sunny 55 12.7 24 -4.6 30 30 WSW 3 6 30.26 1025 10 16 0.00 0.00
3:35 pm 15:35 Sunny 55 13 25 -3.7 31 31 S 3 6 30.24 1024 10 16 0.00 0.00
3:55 pm 15:55 Sunny 56 13.4 25 -3.8 30 30 SSW 3 6 30.24 1024 10 16 0.00 0.00
4:15 pm 16:15 Sunny 56 13.6 24 -4.5 28 28 WSW 3 6 30.24 1024 10 16 0.00 0.00
4:35 pm 16:35 Sunny 56 13.6 25 -3.8 30 30 SSW 6 9 30.24 1024 10 16 0.00 0.00
4:55 pm 16:55 Sunny 56 13.4 23 -4.8 28 28 WSW 7 11 30.24 1024 10 16 0.00 0.00
5:15 pm 17:15 Sunny 56 13.3 23 -5 28 28 WSW 5 7 30.23 1024 10 16 0.00 0.00
5:35 pm 17:35 Sunny 55 13 23 -5.2 28 28 WSW 5 7 30.23 1024 10 16 0.00 0.00
5:55 pm 17:55 Sunny 54 12.2 22 -5.4 29 29 WSW 5 7 30.23 1024 10 16 0.00 0.00
6:15 pm 18:15 Sunny 52 11.3 23 -4.9 32 32 SW 5 7 30.24 1024 10 16 0.00 0.00
6:35 pm 18:35 Clear 48 9 28 -2.4 45 45 Calm 30.24 1024 10 16 0.00 0.00
6:55 pm 18:55 Clear 42 5.7 32 -0.1 67 67 Calm 30.26 1025 10 16 0.00 0.00
7:15 pm 19:15 Clear 41 5 32 -0.1 70 70 Calm 30.26 1025 10 16 0.00 0.00
7:35 pm 19:35 Clear 41 4.9 31 -0.3 69 69 Calm 30.26 1025 10 16 0.00 0.00
7:55 pm 19:55 Clear 38 3.5 32 0.1 79 79 W 6 9 30.26 1025 10 16 0.00 0.00
8:15 pm 20:15 Clear 37 2.8 31 -0.6 79 79 W 3 6 30.26 1025 10 16 0.00 0.00
8:35 pm 20:35 Clear 36 2.1 31 -0.6 83 83 Calm 30.26 1025 10 16 0.00 0.00
8:55 pm 20:55 Clear 37 2.6 31 -0.4 81 81 W 3 6 30.27 1025 10 16 0.00 0.00
9:15 pm 21:15 Clear 35 1.5 31 -0.4 87 87 Calm 30.26 1025 10 16 0.00 0.00
9:35 pm 21:35 Clear 36 2.1 30 -1 80 80 W 3 6 30.26 1025 10 16 0.00 0.00
9:55 pm 21:55 Clear 33 0.8 30 -1 88 88 Calm 30.27 1025 10 16 0.00 0.00
10:15 pm 22:15 Clear 34 1.2 31 -0.8 87 87 Calm 30.27 1025 10 16 0.00 0.00
10:35 pm 22:35 Clear 33 0.8 30 -1 88 88 Calm 30.27 1025 10 16 0.00 0.00
10:55 pm 22:55 Clear 33 0.7 30 -1 89 89 Calm 30.28 1026 10 16 0.00 0.00
11:15 pm 23:15 Clear 32 0 30 -1 93 93 Calm 30.28 1025 10 16 0.00 0.00
11:35 pm 23:35 Clear 32 0 30 -1.1 92 92 Calm 30.27 1025 10 16 0.00 0.00
11:55 pm 23:55 Clear 31 -0.3 30 -1.1 94 94 Calm 30.27 1025 10 16 0.00 0.00

Powered by AerisWeather